Time,TemperatureF,DewpointF,PressureIn,WindDirection,WindDirectionDegrees,WindSpeedMPH,WindSpeedGustMPH,Humidity,HourlyPrecipIn,Conditions,Clouds,dailyrainin,SoftwareType,DateUTC
2013-04-12 05:13:00,28.0,25.8,26.99,NW,315,4.0,4.0,91,0.00,,---,0.00,VWS V14.01,2013-04-12 10:13:00,
2013-04-12 05:14:00,28.0,25.8,27.05,NW,315,3.6,4.0,91,0.00,,---,0.00,VWS V14.01,2013-04-12 10:14:00,
2013-04-12 05:30:00,27.9,25.6,27.05,WNW,292,3.4,5.4,91,0.00,,---,0.00,VWS V14.01,2013-04-12 10:30:00,
2013-04-12 05:45:00,28.4,25.9,27.05,NNW,338,2.9,6.3,90,0.00,,---,0.00,VWS V14.01,2013-04-12 10:45:00,
2013-04-12 06:00:00,28.0,25.0,27.05,NW,315,4.3,4.3,88,0.00,,---,0.00,VWS V14.01,2013-04-12 11:00:00,
2013-04-12 06:15:00,27.9,24.5,27.05,NW,315,3.6,5.4,87,0.00,,---,0.00,VWS V14.01,2013-04-12 11:15:00,
2013-04-12 06:17:00,28.0,25.8,27.05,NW,315,4.3,4.3,91,0.00,,---,0.00,VWS V14.01,2013-04-12 11:17:00,
2013-04-12 06:22:00,27.9,25.6,27.05,NW,315,3.8,4.7,91,0.00,,---,0.00,VWS V14.01,2013-04-12 11:22:00,
2013-04-12 06:27:00,27.9,25.6,27.05,NNW,338,3.1,5.4,91,0.00,,---,0.00,VWS V14.01,2013-04-12 11:27:00,
2013-04-12 06:30:00,27.5,23.9,27.05,North,0,1.6,4.7,86,0.00,,---,0.00,VWS V14.01,2013-04-12 11:30:00,
2013-04-12 06:32:00,27.9,25.6,27.05,NW,315,2.5,4.3,91,0.00,,---,0.00,VWS V14.01,2013-04-12 11:32:00,
2013-04-12 06:37:00,28.2,25.9,27.05,NW,315,3.4,6.3,91,0.00,,---,0.00,VWS V14.01,2013-04-12 11:37:00,
2013-04-12 06:42:00,28.4,26.1,27.05,NW,315,4.0,6.3,91,0.00,,---,0.00,VWS V14.01,2013-04-12 11:42:00,
2013-04-12 06:45:00,30.9,27.2,27.08,NW,315,0.9,2.9,86,0.00,,---,0.00,VWS V14.01,2013-04-12 11:45:00,
2013-04-12 06:47:00,28.4,25.9,27.05,NW,315,4.3,4.3,90,0.00,,---,0.00,VWS V14.01,2013-04-12 11:47:00,
2013-04-12 06:52:00,28.2,25.1,27.05,NW,315,2.2,4.3,88,0.00,,---,0.00,VWS V14.01,2013-04-12 11:52:00,
2013-04-12 06:57:00,28.0,25.0,27.05,NW,315,2.0,4.3,88,0.00,,---,0.00,VWS V14.01,2013-04-12 11:57:00,
2013-04-12 07:00:00,32.7,26.6,27.08,NW,315,1.6,2.9,78,0.00,,---,0.00,VWS V14.01,2013-04-12 12:00:00,
2013-04-12 07:02:00,28.0,25.0,27.05,NW,315,5.4,5.4,88,0.00,,---,0.00,VWS V14.01,2013-04-12 12:02:00,
2013-04-12 07:07:00,28.0,25.0,27.05,WNW,292,2.7,5.4,88,0.00,,---,0.00,VWS V14.01,2013-04-12 12:07:00,
2013-04-12 07:12:00,27.9,24.5,27.05,NW,315,2.0,5.4,87,0.00,,---,0.00,VWS V14.01,2013-04-12 12:12:00,
2013-04-12 07:15:00,32.9,27.4,27.08,West,270,0.0,2.0,80,0.00,,---,0.00,VWS V14.01,2013-04-12 12:15:00,
2013-04-12 07:17:00,27.9,24.5,27.05,NNW,338,4.0,4.3,87,0.00,,---,0.00,VWS V14.01,2013-04-12 12:17:00,
2013-04-12 07:22:00,28.0,25.0,27.05,North,0,2.9,4.7,88,0.00,,---,0.00,VWS V14.01,2013-04-12 12:22:00,
2013-04-12 07:27:00,27.7,24.0,27.05,North,0,2.9,4.7,86,0.00,,---,0.00,VWS V14.01,2013-04-12 12:27:00,
2013-04-12 07:30:00,33.1,27.3,27.08,SW,225,2.5,3.1,79,0.00,,---,0.00,VWS V14.01,2013-04-12 12:30:00,
2013-04-12 07:32:00,27.7,23.8,27.08,North,0,2.0,2.5,85,0.00,,---,0.00,VWS V14.01,2013-04-12 12:32:00,
2013-04-12 07:37:00,28.8,25.1,27.08,NW,315,1.3,2.9,86,0.00,,---,0.00,VWS V14.01,2013-04-12 12:37:00,
2013-04-12 07:42:00,30.2,26.8,27.08,NW,315,1.6,2.9,87,0.00,,---,0.00,VWS V14.01,2013-04-12 12:42:00,
2013-04-12 07:45:00,35.1,29.2,27.08,WSW,248,2.0,4.9,79,0.00,,---,0.00,VWS V14.01,2013-04-12 12:45:00,
2013-04-12 07:47:00,31.6,27.9,27.08,NNW,338,1.1,1.3,86,0.00,,---,0.00,VWS V14.01,2013-04-12 12:47:00,
2013-04-12 07:52:00,32.4,28.4,27.08,NNW,338,1.1,1.6,85,0.00,,---,0.00,VWS V14.01,2013-04-12 12:52:00,
2013-04-12 07:57:00,32.5,26.5,27.08,NW,315,2.2,2.9,78,0.00,,---,0.00,VWS V14.01,2013-04-12 12:57:00,
2013-04-12 08:00:00,38.5,30.6,27.08,West,270,3.6,4.3,73,0.00,,---,0.00,VWS V14.01,2013-04-12 13:00:00,
2013-04-12 08:02:00,32.7,26.6,27.08,NW,315,1.3,1.6,78,0.00,,---,0.00,VWS V14.01,2013-04-12 13:02:00,
2013-04-12 08:07:00,32.7,26.6,27.08,West,270,2.0,2.0,78,0.00,,---,0.00,VWS V14.01,2013-04-12 13:07:00,
2013-04-12 08:12:00,32.7,26.9,27.08,West,270,0.0,2.0,79,0.00,,---,0.00,VWS V14.01,2013-04-12 13:12:00,
2013-04-12 08:17:00,32.9,27.4,27.08,West,270,0.0,0.0,80,0.00,,---,0.00,VWS V14.01,2013-04-12 13:17:00,
2013-04-12 08:22:00,33.1,27.6,27.08,SW,225,2.5,2.5,80,0.00,,---,0.00,VWS V14.01,2013-04-12 13:22:00,
2013-04-12 08:27:00,32.9,26.8,27.08,SW,225,2.2,2.9,78,0.00,,---,0.00,VWS V14.01,2013-04-12 13:27:00,
2013-04-12 08:30:00,43.0,29.2,27.08,WSW,248,3.1,4.9,58,0.00,,---,0.00,VWS V14.01,2013-04-12 13:30:00,
2013-04-12 08:32:00,33.3,27.5,27.08,SW,225,2.0,2.9,79,0.00,,---,0.00,VWS V14.01,2013-04-12 13:32:00,
2013-04-12 08:37:00,34.7,28.9,27.08,WSW,248,2.5,2.9,79,0.00,,---,0.00,VWS V14.01,2013-04-12 13:37:00,
2013-04-12 08:42:00,34.9,29.0,27.08,SW,225,4.9,4.9,79,0.00,,---,0.00,VWS V14.01,2013-04-12 13:42:00,
2013-04-12 08:45:00,44.4,29.7,27.08,SSW,202,3.8,6.3,56,0.00,,---,0.00,VWS V14.01,2013-04-12 13:45:00,
2013-04-12 08:47:00,35.6,29.7,27.08,SW,225,2.5,3.6,79,0.00,,---,0.00,VWS V14.01,2013-04-12 13:47:00,
2013-04-12 08:52:00,36.9,30.0,27.08,NW,315,2.7,4.0,76,0.00,,---,0.00,VWS V14.01,2013-04-12 13:52:00,
2013-04-12 08:57:00,37.9,29.7,27.08,SW,225,2.7,4.0,72,0.00,,---,0.00,VWS V14.01,2013-04-12 13:57:00,
2013-04-12 09:00:00,46.8,31.0,27.08,West,270,2.7,6.0,54,0.00,,---,0.00,VWS V14.01,2013-04-12 14:00:00,
2013-04-12 09:02:00,39.2,30.2,27.08,WSW,248,4.0,4.0,70,0.00,,---,0.00,VWS V14.01,2013-04-12 14:02:00,
2013-04-12 09:07:00,40.1,29.7,27.08,SW,225,3.4,4.7,66,0.00,,---,0.00,VWS V14.01,2013-04-12 14:07:00,
2013-04-12 09:12:00,40.6,29.0,27.08,West,270,2.0,4.7,63,0.00,,---,0.00,VWS V14.01,2013-04-12 14:12:00,
2013-04-12 09:15:00,48.2,30.9,27.08,NW,315,2.0,6.0,51,0.00,,---,0.00,VWS V14.01,2013-04-12 14:15:00,
2013-04-12 09:17:00,41.7,28.0,27.08,West,270,3.4,4.7,58,0.00,,---,0.00,VWS V14.01,2013-04-12 14:17:00,
2013-04-12 09:22:00,42.3,29.0,27.08,West,270,3.1,4.7,59,0.00,,---,0.00,VWS V14.01,2013-04-12 14:22:00,
2013-04-12 09:27:00,42.8,29.5,27.08,SW,225,2.9,4.9,59,0.00,,---,0.00,VWS V14.01,2013-04-12 14:27:00,
2013-04-12 09:30:00,49.3,31.4,27.08,NW,315,6.3,7.8,50,0.00,,---,0.00,VWS V14.01,2013-04-12 14:30:00,
2013-04-12 09:32:00,43.0,29.2,27.08,SW,225,1.6,3.1,58,0.00,,---,0.00,VWS V14.01,2013-04-12 14:32:00,
2013-04-12 09:37:00,44.1,29.8,27.08,SW,225,3.8,4.3,57,0.00,,---,0.00,VWS V14.01,2013-04-12 14:37:00,
2013-04-12 09:42:00,44.4,29.7,27.08,SW,225,3.8,6.3,56,0.00,,---,0.00,VWS V14.01,2013-04-12 14:42:00,
2013-04-12 09:45:00,49.8,31.4,27.08,North,0,8.7,8.7,49,0.00,,---,0.00,VWS V14.01,2013-04-12 14:45:00,
2013-04-12 09:47:00,45.0,29.8,27.08,SW,225,6.0,6.0,55,0.00,,---,0.00,VWS V14.01,2013-04-12 14:47:00,
2013-04-12 09:52:00,45.3,30.6,27.08,SSW,202,3.6,6.0,56,0.00,,---,0.00,VWS V14.01,2013-04-12 14:52:00,
2013-04-12 09:57:00,46.0,30.8,27.08,WNW,292,3.6,6.0,55,0.00,,---,0.00,VWS V14.01,2013-04-12 14:57:00,
2013-04-12 10:00:00,51.3,32.3,27.08,WNW,292,7.2,9.6,48,0.00,,---,0.00,VWS V14.01,2013-04-12 15:00:00,
2013-04-12 10:02:00,46.9,31.2,27.08,NW,315,4.5,4.5,54,0.00,,---,0.00,VWS V14.01,2013-04-12 15:02:00,
2013-04-12 10:07:00,47.3,30.6,27.08,WNW,292,4.0,5.6,52,0.00,,---,0.00,VWS V14.01,2013-04-12 15:07:00,
2013-04-12 10:12:00,47.7,30.9,27.08,NW,315,2.7,5.6,52,0.00,,---,0.00,VWS V14.01,2013-04-12 15:12:00,
2013-04-12 10:15:00,51.8,31.7,27.08,NNW,338,6.5,11.0,46,0.00,,---,0.00,VWS V14.01,2013-04-12 15:15:00,
2013-04-12 10:17:00,48.6,31.3,27.08,West,270,4.0,6.3,51,0.00,,---,0.00,VWS V14.01,2013-04-12 15:17:00,
2013-04-12 10:22:00,48.9,31.6,27.08,West,270,3.4,7.2,51,0.00,,---,0.00,VWS V14.01,2013-04-12 15:22:00,
2013-04-12 10:27:00,49.3,31.5,27.08,WNW,292,7.2,7.8,50,0.00,,---,0.00,VWS V14.01,2013-04-12 15:27:00,
2013-04-12 10:30:00,52.3,31.1,27.08,NW,315,10.7,13.2,44,0.00,,---,0.00,VWS V14.01,2013-04-12 15:30:00,
2013-04-12 10:32:00,49.1,30.8,27.08,NW,315,8.5,8.5,49,0.00,,---,0.00,VWS V14.01,2013-04-12 15:32:00,
2013-04-12 10:37:00,49.5,31.1,27.08,NNW,338,5.4,8.5,49,0.00,,---,0.00,VWS V14.01,2013-04-12 15:37:00,
2013-04-12 10:42:00,49.8,31.4,27.08,NW,315,5.8,8.5,49,0.00,,---,0.00,VWS V14.01,2013-04-12 15:42:00,
2013-04-12 10:45:00,53.2,31.3,27.08,North,0,6.5,12.1,43,0.00,,---,0.00,VWS V14.01,2013-04-12 15:45:00,
2013-04-12 10:47:00,49.8,31.4,27.08,NNW,338,8.1,8.7,49,0.00,,---,0.00,VWS V14.01,2013-04-12 15:47:00,
2013-04-12 10:53:00,50.4,31.9,27.08,West,270,5.4,9.6,49,0.00,,---,0.00,VWS V14.01,2013-04-12 15:53:00,
2013-04-12 10:57:00,50.7,31.8,27.08,NNW,338,3.6,9.6,48,0.00,,---,0.00,VWS V14.01,2013-04-12 15:57:00,
2013-04-12 11:00:00,54.7,32.1,27.08,NW,315,12.8,15.7,42,0.00,,---,0.00,VWS V14.01,2013-04-12 16:00:00,
2013-04-12 11:03:00,50.9,31.4,27.08,NW,315,4.9,11.0,47,0.00,,---,0.00,VWS V14.01,2013-04-12 16:03:00,
2013-04-12 11:07:00,51.4,31.9,27.08,NNE,22,4.7,11.0,47,0.00,,---,0.00,VWS V14.01,2013-04-12 16:07:00,
2013-04-12 11:12:00,51.6,32.6,27.08,NNE,22,5.6,11.0,48,0.00,,---,0.00,VWS V14.01,2013-04-12 16:12:00,
2013-04-12 11:15:00,55.9,32.6,27.08,NW,315,6.3,15.2,41,0.00,,---,0.00,VWS V14.01,2013-04-12 16:15:00,
2013-04-12 11:17:00,51.8,31.1,27.08,NNW,338,7.6,7.6,45,0.00,,---,0.00,VWS V14.01,2013-04-12 16:17:00,
2013-04-12 11:23:00,52.3,31.1,27.08,NNW,338,9.8,13.2,44,0.00,,---,0.00,VWS V14.01,2013-04-12 16:23:00,
2013-04-12 11:28:00,52.2,30.9,27.08,NW,315,5.6,13.2,44,0.00,,---,0.00,VWS V14.01,2013-04-12 16:28:00,
2013-04-12 11:30:00,56.7,32.6,27.05,WNW,292,13.4,15.9,40,0.00,,---,0.00,VWS V14.01,2013-04-12 16:30:00,
2013-04-12 11:33:00,52.5,31.2,27.08,NW,315,10.1,11.0,44,0.00,,---,0.00,VWS V14.01,2013-04-12 16:33:00,
2013-04-12 11:38:00,52.7,30.9,27.08,NNW,338,12.1,12.1,43,0.00,,---,0.00,VWS V14.01,2013-04-12 16:38:00,
2013-04-12 11:43:00,53.2,31.3,27.08,NW,315,7.4,12.1,43,0.00,,---,0.00,VWS V14.01,2013-04-12 16:43:00,
2013-04-12 11:45:00,56.5,32.5,27.08,NW,315,8.1,16.1,40,0.00,,---,0.00,VWS V14.01,2013-04-12 16:45:00,
2013-04-12 11:48:00,53.4,30.9,27.08,NW,315,8.5,9.4,42,0.00,,---,0.00,VWS V14.01,2013-04-12 16:48:00,
2013-04-12 11:53:00,54.0,31.4,27.08,NNW,338,8.5,15.7,42,0.00,,---,0.00,VWS V14.01,2013-04-12 16:53:00,
2013-04-12 11:58:00,54.3,31.7,27.08,NW,315,7.2,15.7,42,0.00,,---,0.00,VWS V14.01,2013-04-12 16:58:00,
2013-04-12 12:00:00,57.2,32.5,27.08,NW,315,8.1,15.2,39,0.00,,---,0.00,VWS V14.01,2013-04-12 17:00:00,
2013-04-12 12:03:00,54.9,32.8,27.08,North,0,7.2,12.8,43,0.00,,---,0.00,VWS V14.01,2013-04-12 17:03:00,
2013-04-12 12:08:00,55.2,32.5,27.08,WNW,292,6.0,15.2,42,0.00,,---,0.00,VWS V14.01,2013-04-12 17:08:00,
2013-04-12 12:13:00,55.8,32.4,27.08,NW,315,9.6,15.2,41,0.00,,---,0.00,VWS V14.01,2013-04-12 17:13:00,
2013-04-12 12:15:00,57.2,31.8,27.08,NNE,22,8.5,17.2,38,0.00,,---,0.00,VWS V14.01,2013-04-12 17:15:00,
2013-04-12 12:18:00,55.9,32.6,27.05,NW,315,7.4,12.5,41,0.00,,---,0.00,VWS V14.01,2013-04-12 17:18:00,
2013-04-12 12:23:00,55.9,32.6,27.05,North,0,12.3,15.9,41,0.00,,---,0.00,VWS V14.01,2013-04-12 17:23:00,
2013-04-12 12:28:00,56.3,32.3,27.05,North,0,10.1,15.9,40,0.00,,---,0.00,VWS V14.01,2013-04-12 17:28:00,
2013-04-12 12:30:00,59.2,33.0,27.08,WNW,292,8.1,17.7,37,0.00,,---,0.00,VWS V14.01,2013-04-12 17:30:00,
2013-04-12 12:33:00,55.9,32.0,27.08,NNW,338,13.2,16.1,40,0.00,,---,0.00,VWS V14.01,2013-04-12 17:33:00,
2013-04-12 12:38:00,56.3,32.3,27.08,NW,315,14.5,16.1,40,0.00,,---,0.00,VWS V14.01,2013-04-12 17:38:00,
2013-04-12 12:43:00,56.3,31.7,27.08,NW,315,12.8,16.1,39,0.00,,---,0.00,VWS V14.01,2013-04-12 17:43:00,
2013-04-12 12:45:00,57.6,31.5,27.08,NW,315,12.5,20.1,37,0.00,,---,0.00,VWS V14.01,2013-04-12 17:45:00,
2013-04-12 12:48:00,57.0,33.0,27.08,WNW,292,11.0,14.5,40,0.00,,---,0.00,VWS V14.01,2013-04-12 17:48:00,
2013-04-12 12:53:00,57.2,32.5,27.08,NW,315,9.6,14.5,39,0.00,,---,0.00,VWS V14.01,2013-04-12 17:53:00,
2013-04-12 12:58:00,57.6,32.8,27.08,North,0,6.5,14.5,39,0.00,,---,0.00,VWS V14.01,2013-04-12 17:58:00,
2013-04-12 13:00:00,57.9,31.8,27.08,North,0,4.3,15.7,37,0.00,,---,0.00,VWS V14.01,2013-04-12 18:00:00,
2013-04-12 13:03:00,57.6,32.8,27.08,North,0,8.1,8.1,39,0.00,,---,0.00,VWS V14.01,2013-04-12 18:03:00,
2013-04-12 13:08:00,57.7,32.3,27.08,NW,315,12.1,17.2,38,0.00,,---,0.00,VWS V14.01,2013-04-12 18:08:00,
2013-04-12 13:13:00,56.7,32.0,27.08,NNW,338,15.4,17.2,39,0.00,,---,0.00,VWS V14.01,2013-04-12 18:13:00,
2013-04-12 13:15:00,59.4,32.4,27.08,NNW,338,8.5,13.4,36,0.00,,---,0.00,VWS V14.01,2013-04-12 18:15:00,
2013-04-12 13:18:00,58.5,33.0,27.08,NW,315,12.8,15.4,38,0.00,,---,0.00,VWS V14.01,2013-04-12 18:18:00,
2013-04-12 13:23:00,58.1,32.7,27.08,NNW,338,10.5,17.7,38,0.00,,---,0.00,VWS V14.01,2013-04-12 18:23:00,
2013-04-12 13:25:00,60.3,33.2,27.08,North,0,8.5,12.1,36,0.00,,---,0.00,VWS V14.01,2013-04-12 18:25:00,
2013-04-12 13:26:00,60.3,33.2,27.08,NW,315,8.7,12.1,36,0.00,,---,0.00,VWS V14.01,2013-04-12 18:26:00,
2013-04-12 13:27:00,60.4,33.4,27.08,NW,315,8.7,12.1,36,0.00,,---,0.00,VWS V14.01,2013-04-12 18:27:00,
2013-04-12 13:28:00,59.0,32.8,27.08,WNW,292,10.5,17.7,37,0.00,,---,0.00,VWS V14.01,2013-04-12 18:28:00,
2013-04-12 13:30:00,59.7,32.7,27.08,NE,45,8.7,12.5,36,0.00,,---,0.00,VWS V14.01,2013-04-12 18:30:00,
2013-04-12 13:45:00,56.1,30.2,27.08,North,0,6.5,10.7,37,0.00,,---,0.00,VWS V14.01,2013-04-12 18:45:00,
2013-04-12 14:00:00,54.3,28.6,27.08,North,0,7.2,13.0,37,0.00,,---,0.00,VWS V14.01,2013-04-12 19:00:00,
2013-04-12 14:15:00,52.0,29.0,27.05,NW,315,5.4,10.5,41,0.00,,---,0.00,VWS V14.01,2013-04-12 19:15:00,
2013-04-12 14:28:00,59.7,32.7,27.08,North,0,10.7,12.5,36,0.00,,---,0.00,VWS V14.01,2013-04-12 19:28:00,
2013-04-12 14:30:00,49.1,31.8,27.08,NW,315,10.1,13.6,51,0.00,,---,0.00,VWS V14.01,2013-04-12 19:30:00,
2013-04-12 14:33:00,59.0,32.1,27.08,NE,45,10.7,10.7,36,0.00,,---,0.00,VWS V14.01,2013-04-12 19:33:00,
2013-04-12 14:38:00,57.2,30.5,27.08,NNE,22,5.6,10.7,36,0.00,,---,0.00,VWS V14.01,2013-04-12 19:38:00,
2013-04-12 14:43:00,56.3,30.4,27.08,NW,315,6.9,10.7,37,0.00,,---,0.00,VWS V14.01,2013-04-12 19:43:00,
2013-04-12 14:48:00,55.9,30.1,27.08,NNE,22,6.5,12.3,37,0.00,,---,0.00,VWS V14.01,2013-04-12 19:48:00,
2013-04-12 14:53:00,55.0,29.3,27.08,North,0,10.3,12.3,37,0.00,,---,0.00,VWS V14.01,2013-04-12 19:53:00,
2013-04-12 14:58:00,54.5,28.8,27.08,NE,45,6.5,13.0,37,0.00,,---,0.00,VWS V14.01,2013-04-12 19:58:00,
2013-04-12 15:00:00,52.0,34.4,27.11,NW,315,6.3,12.5,51,0.00,,---,0.00,VWS V14.01,2013-04-12 20:00:00,
2013-04-12 15:03:00,54.0,28.3,27.05,NW,315,6.0,10.5,37,0.00,,---,0.00,VWS V14.01,2013-04-12 20:03:00,
2013-04-12 15:08:00,53.2,28.3,27.05,NW,315,6.0,10.5,38,0.00,,---,0.00,VWS V14.01,2013-04-12 20:08:00,
2013-04-12 15:13:00,53.1,28.1,27.05,NW,315,4.5,10.5,38,0.00,,---,0.00,VWS V14.01,2013-04-12 20:13:00,
2013-04-12 15:15:00,52.5,32.9,27.08,NW,315,6.0,8.5,47,0.00,,---,0.00,VWS V14.01,2013-04-12 20:15:00,
2013-04-12 15:18:00,51.3,29.5,27.08,WSW,248,8.5,10.7,43,0.00,,---,0.00,VWS V14.01,2013-04-12 20:18:00,
2013-04-12 15:23:00,50.5,30.0,27.08,NW,315,8.1,11.9,45,0.00,,---,0.00,VWS V14.01,2013-04-12 20:23:00,
2013-04-12 15:28:00,49.5,31.6,27.08,NW,315,5.6,12.5,50,0.00,,---,0.00,VWS V14.01,2013-04-12 20:28:00,
2013-04-12 15:30:00,51.6,32.6,27.05,North,0,6.0,7.2,48,0.00,,---,0.00,VWS V14.01,2013-04-12 20:30:00,
2013-04-12 15:33:00,48.7,33.3,27.11,NW,315,11.0,12.5,55,0.00,,---,0.00,VWS V14.01,2013-04-12 20:33:00,
2013-04-12 15:38:00,48.7,35.5,27.11,NW,315,7.4,12.5,60,0.00,,---,0.00,VWS V14.01,2013-04-12 20:38:00,
2013-04-12 15:43:00,49.8,35.7,27.11,WNW,292,3.8,12.5,58,0.00,,---,0.00,VWS V14.01,2013-04-12 20:43:00,
2013-04-12 15:45:00,50.2,31.3,27.08,North,0,9.8,13.6,48,0.00,,---,0.00,VWS V14.01,2013-04-12 20:45:00,
2013-04-12 15:48:00,50.9,35.8,27.11,WNW,292,3.6,12.5,56,0.00,,---,0.00,VWS V14.01,2013-04-12 20:48:00,
2013-04-12 15:53:00,51.8,34.8,27.11,NW,315,4.3,12.5,52,0.00,,---,0.00,VWS V14.01,2013-04-12 20:53:00,
2013-04-12 15:58:00,52.2,35.1,27.11,NW,315,8.7,12.5,52,0.00,,---,0.00,VWS V14.01,2013-04-12 20:58:00,
2013-04-12 16:00:00,47.3,33.3,27.11,NNW,338,13.0,22.6,58,0.00,,---,0.00,VWS V14.01,2013-04-12 21:00:00,
2013-04-12 16:03:00,52.2,35.1,27.08,WNW,292,7.2,7.2,52,0.00,,---,0.00,VWS V14.01,2013-04-12 21:03:00,
2013-04-12 16:08:00,52.5,33.4,27.08,NNW,338,5.8,7.2,48,0.00,,---,0.00,VWS V14.01,2013-04-12 21:08:00,
2013-04-12 16:13:00,52.7,33.0,27.08,NW,315,6.5,7.6,47,0.00,,---,0.00,VWS V14.01,2013-04-12 21:13:00,
2013-04-12 16:15:00,42.4,38.0,27.11,NW,315,11.4,23.3,84,0.00,,---,0.00,VWS V14.01,2013-04-12 21:15:00,
2013-04-12 16:18:00,52.5,32.9,27.05,NW,315,4.0,7.2,47,0.00,,---,0.00,VWS V14.01,2013-04-12 21:18:00,
2013-04-12 16:23:00,52.3,32.7,27.05,North,0,3.1,7.2,47,0.00,,---,0.00,VWS V14.01,2013-04-12 21:23:00,
2013-04-12 16:28:00,51.6,32.6,27.05,North,0,6.5,7.2,48,0.00,,---,0.00,VWS V14.01,2013-04-12 21:28:00,
2013-04-12 16:30:00,41.2,37.3,27.14,NW,315,7.8,17.0,86,0.00,,---,0.00,VWS V14.01,2013-04-12 21:30:00,
2013-04-12 16:33:00,51.6,32.6,27.05,NW,315,3.4,6.0,48,0.00,,---,0.00,VWS V14.01,2013-04-12 21:33:00,
2013-04-12 16:38:00,50.7,31.8,27.08,North,0,3.8,6.0,48,0.00,,---,0.00,VWS V14.01,2013-04-12 21:38:00,
2013-04-12 16:43:00,50.4,31.4,27.08,NW,315,13.6,13.6,48,0.00,,---,0.00,VWS V14.01,2013-04-12 21:43:00,
2013-04-12 16:45:00,41.2,38.2,27.14,North,0,6.3,13.2,89,0.00,,---,0.00,VWS V14.01,2013-04-12 21:45:00,
2013-04-12 16:48:00,50.0,31.1,27.11,NW,315,5.4,9.8,48,0.00,,---,0.00,VWS V14.01,2013-04-12 21:48:00,
2013-04-12 16:53:00,49.6,31.3,27.11,NNE,22,7.6,9.8,49,0.00,,---,0.00,VWS V14.01,2013-04-12 21:53:00,
2013-04-12 16:58:00,48.0,32.2,27.11,NW,315,19.5,22.6,54,0.00,,---,0.00,VWS V14.01,2013-04-12 21:58:00,
2013-04-12 17:00:00,41.9,39.8,27.14,NW,315,4.0,8.7,92,0.00,,---,0.00,VWS V14.01,2013-04-12 22:00:00,
2013-04-12 17:03:00,46.0,35.3,27.11,NNW,338,17.5,23.3,66,0.00,,---,0.00,VWS V14.01,2013-04-12 22:03:00,
2013-04-12 17:08:00,43.5,36.8,27.11,NW,315,19.9,23.3,77,0.00,,---,0.00,VWS V14.01,2013-04-12 22:08:00,
2013-04-12 17:13:00,42.6,37.5,27.11,NW,315,13.0,23.3,82,0.00,,---,0.00,VWS V14.01,2013-04-12 22:13:00,
2013-04-12 17:18:00,42.3,38.1,27.14,NW,315,11.2,15.2,85,0.00,,---,0.00,VWS V14.01,2013-04-12 22:18:00,
2013-04-12 17:23:00,41.7,37.8,27.14,North,0,11.0,15.2,86,0.00,,---,0.00,VWS V14.01,2013-04-12 22:23:00,
2013-04-12 17:28:00,41.5,37.7,27.14,North,0,10.1,15.2,86,0.00,,---,0.00,VWS V14.01,2013-04-12 22:28:00,
2013-04-12 17:33:00,41.2,37.3,27.14,NNW,338,11.2,13.2,86,0.00,,---,0.00,VWS V14.01,2013-04-12 22:33:00,
2013-04-12 17:38:00,41.0,37.7,27.14,North,0,7.8,13.2,88,0.00,,---,0.00,VWS V14.01,2013-04-12 22:38:00,
2013-04-12 17:43:00,41.2,37.9,27.14,North,0,8.5,13.2,88,0.00,,---,0.00,VWS V14.01,2013-04-12 22:43:00,
2013-04-12 17:45:00,43.7,39.2,27.14,North,0,6.5,7.6,84,0.00,,---,0.00,VWS V14.01,2013-04-12 22:45:00,
2013-04-12 17:48:00,41.4,38.7,27.14,North,0,6.5,8.7,90,0.00,,---,0.00,VWS V14.01,2013-04-12 22:48:00,
2013-04-12 17:53:00,41.5,39.4,27.14,NW,315,8.5,8.7,92,0.00,,---,0.00,VWS V14.01,2013-04-12 22:53:00,
2013-04-12 17:58:00,41.7,39.3,27.14,North,0,3.8,8.7,91,0.00,,---,0.00,VWS V14.01,2013-04-12 22:58:00,
2013-04-12 18:00:00,43.9,39.1,27.14,North,0,5.4,7.8,83,0.00,,---,0.00,VWS V14.01,2013-04-12 23:00:00,
2013-04-12 18:03:00,41.9,39.8,27.17,NW,315,4.9,5.8,92,0.00,,---,0.00,VWS V14.01,2013-04-12 23:03:00,
2013-04-12 18:08:00,42.1,39.7,27.17,North,0,5.6,6.0,91,0.00,,---,0.00,VWS V14.01,2013-04-12 23:08:00,
2013-04-12 18:13:00,42.4,40.0,27.17,North,0,3.1,7.4,91,0.00,,---,0.00,VWS V14.01,2013-04-12 23:13:00,
2013-04-12 18:15:00,43.9,39.1,27.14,North,0,5.4,7.4,83,0.00,,---,0.00,VWS V14.01,2013-04-12 23:15:00,
2013-04-12 18:18:00,42.6,40.2,27.14,North,0,5.8,7.4,91,0.00,,---,0.00,VWS V14.01,2013-04-12 23:18:00,
2013-04-12 18:23:00,42.8,38.9,27.14,North,0,5.6,7.4,86,0.00,,---,0.00,VWS V14.01,2013-04-12 23:23:00,
2013-04-12 18:28:00,43.0,39.1,27.14,North,0,3.8,7.4,86,0.00,,---,0.00,VWS V14.01,2013-04-12 23:28:00,
2013-04-12 18:30:00,43.5,37.8,27.17,North,0,4.3,8.7,80,0.00,,---,0.00,VWS V14.01,2013-04-12 23:30:00,
2013-04-12 18:33:00,43.2,39.0,27.14,North,0,3.4,7.4,85,0.00,,---,0.00,VWS V14.01,2013-04-12 23:33:00,
2013-04-12 18:38:00,43.5,39.9,27.14,North,0,4.0,7.4,87,0.00,,---,0.00,VWS V14.01,2013-04-12 23:38:00,
2013-04-12 18:43:00,43.7,39.5,27.14,NNE,22,3.8,7.4,85,0.00,,---,0.00,VWS V14.01,2013-04-12 23:43:00,
2013-04-12 18:45:00,43.5,38.1,27.11,North,0,3.1,6.0,81,0.00,,---,0.00,VWS V14.01,2013-04-12 23:45:00,
2013-04-12 18:48:00,43.7,39.2,27.14,North,0,6.3,7.4,84,0.00,,---,0.00,VWS V14.01,2013-04-12 23:48:00,
2013-04-12 18:53:00,43.7,38.6,27.14,North,0,3.4,7.8,82,0.00,,---,0.00,VWS V14.01,2013-04-12 23:53:00,
2013-04-12 18:58:00,43.9,39.4,27.14,North,0,7.8,7.8,84,0.00,,---,0.00,VWS V14.01,2013-04-12 23:58:00,
2013-04-12 19:00:00,45.9,38.4,27.14,North,0,1.3,3.8,75,0.00,,---,0.00,VWS V14.01,2013-04-13 00:00:00,
2013-04-12 19:03:00,43.9,39.1,27.14,North,0,7.2,7.2,83,0.00,,---,0.00,VWS V14.01,2013-04-13 00:03:00,
2013-04-12 19:08:00,43.7,38.0,27.14,North,0,4.0,7.4,80,0.00,,---,0.00,VWS V14.01,2013-04-13 00:08:00,
2013-04-12 19:13:00,43.9,39.1,27.14,NNW,338,3.4,7.4,83,0.00,,---,0.00,VWS V14.01,2013-04-13 00:13:00,
2013-04-12 19:15:00,42.1,35.4,27.14,North,0,0.9,1.6,77,0.00,,---,0.00,VWS V14.01,2013-04-13 00:15:00,
2013-04-12 19:18:00,43.7,38.0,27.17,NW,315,5.8,6.3,80,0.00,,---,0.00,VWS V14.01,2013-04-13 00:18:00,
2013-04-12 19:23:00,43.7,38.0,27.17,North,0,4.9,8.7,80,0.00,,---,0.00,VWS V14.01,2013-04-13 00:23:00,
2013-04-12 19:28:00,43.7,38.3,27.17,North,0,5.6,8.7,81,0.00,,---,0.00,VWS V14.01,2013-04-13 00:28:00,
2013-04-12 19:30:00,39.6,34.5,27.14,North,0,0.0,1.6,82,0.00,,---,0.00,VWS V14.01,2013-04-13 00:30:00,
2013-04-12 19:33:00,43.3,37.6,27.11,North,0,4.0,6.0,80,0.00,,---,0.00,VWS V14.01,2013-04-13 00:33:00,
2013-04-12 19:38:00,43.0,37.6,27.11,North,0,4.3,6.0,81,0.00,,---,0.00,VWS V14.01,2013-04-13 00:38:00,
2013-04-12 19:43:00,43.0,37.9,27.11,North,0,3.4,6.0,82,0.00,,---,0.00,VWS V14.01,2013-04-13 00:43:00,
2013-04-12 19:45:00,37.9,32.9,27.14,North,0,0.0,0.0,82,0.00,,---,0.00,VWS V14.01,2013-04-13 00:45:00,
2013-04-12 19:48:00,44.8,39.0,27.14,North,0,2.2,3.8,80,0.00,,---,0.00,VWS V14.01,2013-04-13 00:48:00,
2013-04-12 19:53:00,45.5,38.7,27.14,North,0,2.2,3.8,77,0.00,,---,0.00,VWS V14.01,2013-04-13 00:53:00,
2013-04-12 19:58:00,45.9,38.7,27.14,North,0,1.3,3.8,76,0.00,,---,0.00,VWS V14.01,2013-04-13 00:58:00,
2013-04-12 20:03:00,45.3,37.9,27.14,North,0,1.3,1.6,75,0.00,,---,0.00,VWS V14.01,2013-04-13 01:03:00,
2013-04-12 20:08:00,44.8,37.3,27.14,North,0,0.0,1.6,75,0.00,,---,0.00,VWS V14.01,2013-04-13 01:08:00,
2013-04-12 20:13:00,43.0,35.6,27.14,North,0,0.9,1.6,75,0.00,,---,0.00,VWS V14.01,2013-04-13 01:13:00,
2013-04-12 20:15:00,36.7,32.6,27.14,North,0,0.0,0.9,85,0.00,,---,0.00,VWS V14.01,2013-04-13 01:15:00,
2013-04-12 20:18:00,41.5,35.5,27.14,North,0,0.0,0.9,79,0.00,,---,0.00,VWS V14.01,2013-04-13 01:18:00,
2013-04-12 20:23:00,40.5,36.3,27.14,North,0,1.1,1.6,85,0.00,,---,0.00,VWS V14.01,2013-04-13 01:23:00,
2013-04-12 20:28:00,39.7,35.0,27.14,North,0,0.0,1.6,83,0.00,,---,0.00,VWS V14.01,2013-04-13 01:28:00,
2013-04-12 20:33:00,39.0,33.4,27.14,North,0,0.0,0.0,80,0.00,,---,0.00,VWS V14.01,2013-04-13 01:33:00,
2013-04-12 20:38:00,38.5,33.5,27.14,North,0,0.0,0.0,82,0.00,,---,0.00,VWS V14.01,2013-04-13 01:38:00,
2013-04-12 20:43:00,38.1,33.1,27.14,North,0,0.0,0.0,82,0.00,,---,0.00,VWS V14.01,2013-04-13 01:43:00,
2013-04-12 20:45:00,35.4,32.8,27.14,WNW,292,0.0,2.9,90,0.00,,---,0.00,VWS V14.01,2013-04-13 01:45:00,
2013-04-12 20:48:00,37.8,32.5,27.14,North,0,0.0,0.0,81,0.00,,---,0.00,VWS V14.01,2013-04-13 01:48:00,
2013-04-12 20:53:00,37.4,33.3,27.14,North,0,0.0,0.0,85,0.00,,---,0.00,VWS V14.01,2013-04-13 01:53:00,
2013-04-12 20:58:00,37.0,33.2,27.14,North,0,0.0,0.0,86,0.00,,---,0.00,VWS V14.01,2013-04-13 01:58:00,
2013-04-12 21:00:00,34.7,32.3,27.14,North,0,2.7,3.6,91,0.00,,---,0.00,VWS V14.01,2013-04-13 02:00:00,
2013-04-12 21:03:00,36.9,32.8,27.14,North,0,0.0,0.0,85,0.00,,---,0.00,VWS V14.01,2013-04-13 02:03:00,
2013-04-12 21:08:00,36.7,32.9,27.14,North,0,0.0,0.0,86,0.00,,---,0.00,VWS V14.01,2013-04-13 02:08:00,
2013-04-12 21:13:00,36.7,32.6,27.14,North,0,0.9,0.9,85,0.00,,---,0.00,VWS V14.01,2013-04-13 02:13:00,
2013-04-12 21:15:00,34.3,32.8,27.14,North,0,1.3,2.9,94,0.00,,---,0.00,VWS V14.01,2013-04-13 02:15:00,
2013-04-12 21:18:00,36.7,32.9,27.14,North,0,0.0,0.0,86,0.00,,---,0.00,VWS V14.01,2013-04-13 02:18:00,
2013-04-12 21:23:00,36.3,33.4,27.14,North,0,2.5,2.9,89,0.00,,---,0.00,VWS V14.01,2013-04-13 02:23:00,
2013-04-12 21:28:00,36.1,33.5,27.14,NW,315,0.0,2.9,90,0.00,,---,0.00,VWS V14.01,2013-04-13 02:28:00,
2013-04-12 21:30:00,34.3,33.3,27.14,NW,315,1.3,2.9,96,0.00,,---,0.00,VWS V14.01,2013-04-13 02:30:00,
2013-04-12 21:33:00,36.0,33.3,27.14,NW,315,1.1,2.9,90,0.00,,---,0.00,VWS V14.01,2013-04-13 02:33:00,
2013-04-12 21:38:00,35.6,33.2,27.14,NW,315,0.0,2.9,91,0.00,,---,0.00,VWS V14.01,2013-04-13 02:38:00,
2013-04-12 21:43:00,35.4,32.8,27.14,NW,315,0.0,2.9,90,0.00,,---,0.00,VWS V14.01,2013-04-13 02:43:00,
2013-04-12 21:45:00,33.8,32.5,27.14,West,270,2.0,2.7,95,0.00,,---,0.00,VWS V14.01,2013-04-13 02:45:00,
2013-04-12 21:48:00,35.2,32.6,27.14,WNW,292,0.0,0.0,90,0.00,,---,0.00,VWS V14.01,2013-04-13 02:48:00,
2013-04-12 21:53:00,35.2,32.6,27.14,West,270,1.6,1.6,90,0.00,,---,0.00,VWS V14.01,2013-04-13 02:53:00,
2013-04-12 21:58:00,35.2,32.9,27.14,North,0,2.9,2.9,91,0.00,,---,0.00,VWS V14.01,2013-04-13 02:58:00,
2013-04-12 21:59:00,33.8,33.0,27.14,NW,315,0.0,2.9,97,0.00,,---,0.00,VWS V14.01,2013-04-13 02:59:00,
2013-04-12 22:00:00,33.8,33.0,27.14,NW,315,0.0,2.9,97,0.00,,---,0.00,VWS V14.01,2013-04-13 03:00:00,
2013-04-12 22:01:00,33.8,33.0,27.14,NW,315,0.0,0.0,97,0.00,,---,0.00,VWS V14.01,2013-04-13 03:01:00,
2013-04-12 22:02:00,34.0,33.2,27.14,NW,315,2.9,2.9,97,0.00,,---,0.00,VWS V14.01,2013-04-13 03:02:00,
2013-04-12 22:03:00,34.5,32.4,27.14,North,0,2.2,2.9,92,0.00,,---,0.00,VWS V14.01,2013-04-13 03:03:00,
2013-04-12 22:08:00,34.5,32.4,27.14,North,0,0.9,2.9,92,0.00,,---,0.00,VWS V14.01,2013-04-13 03:08:00,
2013-04-12 22:13:00,34.3,32.5,27.14,North,0,2.5,2.9,93,0.00,,---,0.00,VWS V14.01,2013-04-13 03:13:00,
2013-04-12 22:15:00,34.5,34.3,27.17,NW,315,1.3,5.6,99,0.00,,---,0.00,VWS V14.01,2013-04-13 03:15:00,
2013-04-12 22:18:00,34.3,32.8,27.14,North,0,2.0,2.5,94,0.00,,---,0.00,VWS V14.01,2013-04-13 03:18:00,
2013-04-12 22:23:00,34.3,33.1,27.14,NNW,338,1.6,2.9,95,0.00,,---,0.00,VWS V14.01,2013-04-13 03:23:00,
2013-04-12 22:28:00,34.3,33.3,27.14,NW,315,2.5,2.9,96,0.00,,---,0.00,VWS V14.01,2013-04-13 03:28:00,
2013-04-12 22:30:00,34.0,33.5,27.17,NW,315,2.2,3.6,98,0.00,,---,0.00,VWS V14.01,2013-04-13 03:30:00,
2013-04-12 22:33:00,34.2,33.1,27.14,NW,315,2.2,2.5,96,0.00,,---,0.00,VWS V14.01,2013-04-13 03:33:00,
2013-04-12 22:38:00,34.0,33.0,27.14,NW,315,1.6,2.5,96,0.00,,---,0.00,VWS V14.01,2013-04-13 03:38:00,
2013-04-12 22:43:00,33.8,32.5,27.14,West,270,2.7,2.7,95,0.00,,---,0.00,VWS V14.01,2013-04-13 03:43:00,
2013-04-12 22:45:00,33.4,32.9,27.17,NW,315,2.5,3.1,98,0.00,,---,0.00,VWS V14.01,2013-04-13 03:45:00,
2013-04-12 22:48:00,34.2,33.1,27.14,West,270,2.0,2.7,96,0.00,,---,0.00,VWS V14.01,2013-04-13 03:48:00,
2013-04-12 22:53:00,34.3,33.6,27.14,NNW,338,2.7,2.7,97,0.00,,---,0.00,VWS V14.01,2013-04-13 03:53:00,
2013-04-12 22:58:00,34.0,33.2,27.14,NW,315,1.1,2.9,97,0.00,,---,0.00,VWS V14.01,2013-04-13 03:58:00,
2013-04-12 23:00:00,33.4,33.2,27.20,North,0,3.8,6.5,99,0.00,,---,0.00,VWS V14.01,2013-04-13 04:00:00,
2013-04-12 23:03:00,34.0,33.2,27.14,West,270,0.0,2.9,97,0.00,,---,0.00,VWS V14.01,2013-04-13 04:03:00,
2013-04-12 23:08:00,34.3,33.8,27.17,West,270,2.7,5.6,98,0.00,,---,0.00,VWS V14.01,2013-04-13 04:08:00,
2013-04-12 23:13:00,34.5,34.3,27.17,WNW,292,2.0,5.6,99,0.00,,---,0.00,VWS V14.01,2013-04-13 04:13:00,
2013-04-12 23:15:00,33.6,33.4,27.17,NNW,338,3.1,5.4,99,0.00,,---,0.00,VWS V14.01,2013-04-13 04:15:00,
2013-04-12 23:18:00,34.3,34.1,27.17,WNW,292,2.0,3.6,99,0.00,,---,0.00,VWS V14.01,2013-04-13 04:18:00,
2013-04-12 23:23:00,34.3,34.1,27.17,NW,315,2.7,3.6,99,0.00,,---,0.00,VWS V14.01,2013-04-13 04:23:00,
2013-04-12 23:28:00,34.2,33.7,27.17,NW,315,1.1,3.6,98,0.00,,---,0.00,VWS V14.01,2013-04-13 04:28:00,
2013-04-12 23:30:00,34.0,33.7,27.17,WNW,292,3.1,5.8,99,0.00,,---,0.00,VWS V14.01,2013-04-13 04:30:00,
2013-04-12 23:33:00,34.0,33.5,27.17,West,270,2.0,3.1,98,0.00,,---,0.00,VWS V14.01,2013-04-13 04:33:00,
2013-04-12 23:38:00,33.8,33.3,27.17,NW,315,3.1,3.1,98,0.00,,---,0.00,VWS V14.01,2013-04-13 04:38:00,
2013-04-12 23:43:00,33.4,32.9,27.17,NW,315,2.7,3.1,98,0.00,,---,0.00,VWS V14.01,2013-04-13 04:43:00,
2013-04-12 23:45:00,33.6,33.4,27.17,NW,315,2.9,4.0,99,0.00,,---,0.00,VWS V14.01,2013-04-13 04:45:00,
2013-04-12 23:48:00,33.4,32.9,27.20,NW,315,3.4,6.5,98,0.00,,---,0.00,VWS V14.01,2013-04-13 04:48:00,
2013-04-12 23:53:00,33.6,33.4,27.20,NNW,338,3.6,6.5,99,0.00,,---,0.00,VWS V14.01,2013-04-13 04:53:00,
2013-04-12 23:58:00,33.6,33.4,27.20,NW,315,2.5,6.5,99,0.00,,---,0.00,VWS V14.01,2013-04-13 04:58:00,